N3FAA Weather Reports


time (UTC)temp
C
wind
direction
speed
KPH
gust
KPH
rain 1hr
cm
rain 24hr
cm
rain mn
cm
humidity
%
barometer
mb
20260506201625 26 148 0.0 0.0 0.00 0.00 0.00 26 1013.9
20260506201121 26 145 1.6 8.0 0.00 0.00 0.00 27 1014.1
20260506200618 27 41 0.0 0.0 0.00 0.00 0.00 26 1014.0
20260506200115 26 92 0.0 0.0 0.00 0.00 0.00 27 1014.1
20260506195612 26 246 0.0 0.0 0.00 0.00 0.00 27 1014.1
20260506195108 26 83 0.0 0.0 0.00 0.00 0.00 26 1014.0
20260506194605 26 229 0.0 0.0 0.00 0.00 0.00 27 1014.3
20260506194102 26 14 0.0 0.0 0.00 0.00 0.00 27 1014.3
20260506193600 26 314 3.2 9.7 0.00 0.00 0.00 27 1014.3
20260506193057 25 62 0.0 0.0 0.00 0.00 0.00 28 1014.5
20260506192553 25 225 0.0 0.0 0.00 0.00 0.00 28 1014.3
20260506192049 26 216 0.0 0.0 0.00 0.00 0.00 28 1014.4
20260506191546 25 204 0.0 0.0 0.00 0.00 0.00 29 1014.4
20260506191042 25 231 0.0 0.0 0.00 0.00 0.00 30 1014.6
20260506190539 24 239 0.0 0.0 0.00 0.00 0.00 31 1014.5
20260506190036 24 145 0.0 0.0 0.00 0.00 0.00 30 1014.6
20260506185533 23 275 0.0 0.0 0.00 0.00 0.00 32 1014.4
20260506185030 25 279 0.0 0.0 0.00 0.00 0.00 32 1014.6
20260506184527 23 149 0.0 0.0 0.00 0.00 0.00 33 1014.7
20260506184025 23 174 0.0 0.0 0.00 0.00 0.00 32 1014.7
20260506183520 23 223 0.0 0.0 0.00 0.00 0.00 33 1014.8
20260506183017 23 156 0.0 0.0 0.00 0.00 0.00 34 1014.9
20260506182515 23 133 0.0 0.0 0.00 0.00 0.00 35 1015.1
20260506182011 23 159 0.0 0.0 0.00 0.00 0.00 34 1014.8
20260506181509 22 159 0.0 0.0 0.00 0.00 0.00 37 1015.0
20260506181006 22 114 0.0 0.0 0.00 0.00 0.00 36 1014.8
20260506180503 23 172 0.0 0.0 0.00 0.00 0.00 36 1014.7
20260506175959 22 168 0.0 0.0 0.00 0.00 0.00 35 1015.0
20260506175455 22 168 0.0 0.0 0.00 0.00 0.00 36 1014.7
20260506174952 22 154 0.0 0.0 0.00 0.00 0.00 36 1014.9
20260506174451 21 153 0.0 0.0 0.00 0.00 0.00 38 1015.2
20260506173946 21 110 0.0 0.0 0.00 0.00 0.00 38 1015.2
20260506173444 21 95 0.0 0.0 0.00 0.00 0.00 37 1015.0
20260506172941 21 99 0.0 0.0 0.00 0.00 0.00 39 1014.9
20260506172439 21 88 1.6 3.2 0.00 0.00 0.00 38 1015.0
20260506171934 21 57 0.0 0.0 0.00 0.00 0.00 39 1015.1
20260506171431 20 180 0.0 0.0 0.00 0.00 0.00 40 1015.1
20260506170924 20 213 0.0 0.0 0.00 0.00 0.00 41 1015.2
20260506170419 20 190 0.0 0.0 0.00 0.00 0.00 39 1015.2
20260506165913 20 335 0.0 0.0 0.00 0.00 0.00 40 1015.1
20260506165411 19 328 0.0 0.0 0.00 0.00 0.00 43 1015.0
20260506164906 19 227 0.0 0.0 0.00 0.00 0.00 42 1015.2
20260506164403 20 254 0.0 0.0 0.00 0.00 0.00 43 1015.2
20260506163901 18 223 0.0 0.0 0.00 0.00 0.00 44 1014.9
20260506163356 18 240 0.0 0.0 0.00 0.00 0.00 44 1015.3
20260506162851 18 281 0.0 0.0 0.00 0.00 0.00 46 1015.0
20260506162349 18 281 0.0 0.0 0.00 0.00 0.00 46 1015.2
20260506161847 18 259 4.8 4.8 0.00 0.00 0.00 46 1015.1
20260506161345 18 274 0.0 0.0 0.00 0.00 0.00 46 1015.1
20260506160842 17 247 12.9 17.7 0.00 0.00 0.00 47 1015.1
20260506160338 17 289 8.0 11.3 0.00 0.00 0.00 47 1015.1
20260506155836 17 262 1.6 4.8 0.00 0.00 0.00 48 1015.2
20260506155333 17 283 9.7 12.9 0.00 0.00 0.00 47 1014.8
20260506153445 16 263 9.7 12.9 0.00 0.00 0.00 50 1015.2
20260506152942 16 272 0.0 0.0 0.00 0.00 0.00 51 1015.1
20260506152439 16 263 6.4 9.7 0.00 0.00 0.00 52 1015.2
20260506151938 16 259 11.3 16.1 0.00 0.00 0.00 53 1015.0
20260506151435 16 274 8.0 11.3 0.00 0.00 0.00 53 1015.2
20260506150932 16 263 3.2 8.0 0.00 0.00 0.00 53 1015.2
20260506150428 15 241 11.3 14.5 0.00 0.00 0.00 54 1014.9
20260506145925 15 252 4.8 9.7 0.00 0.00 0.00 55 1015.0
20260506145421 15 260 0.0 1.6 0.00 0.00 0.00 55 1015.0
20260506144919 15 257 0.0 1.6 0.00 0.00 0.00 56 1015.0
20260506144415 15 237 1.6 4.8 0.00 0.00 0.00 57 1015.1
20260506143914 14 261 11.3 12.9 0.00 0.00 0.00 59 1015.1
20260506143410 13 260 0.0 0.0 0.00 0.00 0.00 61 1014.9
20260506142909 13 248 0.0 0.0 0.00 0.00 0.00 63 1014.9
20260506142407 12 267 1.6 3.2 0.00 0.00 0.00 64 1015.0
20260506141904 12 263 0.0 0.0 0.00 0.00 0.00 66 1015.2
20260506141402 12 263 8.0 11.3 0.00 0.00 0.00 66 1014.9
20260506140900 12 245 4.8 9.7 0.00 0.00 0.00 67 1015.0
20260506140357 11 260 4.8 9.7 0.00 0.00 0.00 68 1014.8
20260506135854 11 257 0.0 0.0 0.00 0.00 0.00 71 1014.6
20260506135351 10 276 0.0 0.0 0.00 0.00 0.00 72 1014.7
20260506134847 9 281 0.0 0.0 0.00 0.00 0.00 74 1014.8
20260506134343 8 281 0.0 0.0 0.00 0.00 0.00 75 1014.7
20260506133840 9 277 0.0 0.0 0.00 0.00 0.00 75 1014.9
20260506133337 8 274 0.0 0.0 0.00 0.00 0.00 78 1014.5
20260506132833 8 281 0.0 0.0 0.00 0.00 0.00 77 1014.5
20260506132331 9 305 0.0 0.0 0.00 0.00 0.00 76 1014.5
20260506131829 9 248 0.0 0.0 0.00 0.00 0.00 77 1014.4
20260506131325 9 249 0.0 0.0 0.00 0.00 0.00 77 1014.4
20260506130822 9 251 0.0 0.0 0.00 0.00 0.00 77 1014.3
20260506130319 9 263 0.0 0.0 0.00 0.00 0.00 78 1014.3
20260506125817 7 243 0.0 0.0 0.00 0.00 0.00 82 1014.4
20260506125315 5 293 0.0 0.0 0.00 0.00 0.00 81 1013.9
20260506124813 5 295 0.0 0.0 0.00 0.00 0.00 81 1014.4
20260506124309 5 295 0.0 0.0 0.00 0.00 0.00 81 1014.3
20260506123807 5 295 0.0 0.0 0.00 0.00 0.00 80 1013.9
20260506123306 6 296 0.0 0.0 0.00 0.00 0.00 78 1013.9
20260506122802 7 297 0.0 0.0 0.00 0.00 0.00 77 1013.8
20260506122259 7 260 0.0 0.0 0.00 0.00 0.00 80 1014.0
20260506121757 7 267 0.0 0.0 0.00 0.00 0.00 81 1014.0
20260506121254 6 273 0.0 0.0 0.00 0.00 0.00 83 1014.1
20260506120751 5 278 0.0 0.0 0.00 0.00 0.00 82 1014.0
20260506120249 5 281 0.0 0.0 0.00 0.00 0.00 84 1014.1
20260506115746 5 282 0.0 0.0 0.00 0.00 0.00 83 1014.0
20260506115244 5 283 0.0 0.0 0.00 0.00 0.00 83 1013.9
20260506114742 5 284 0.0 0.0 0.00 0.00 0.00 83 1013.9
20260506114239 5 284 0.0 0.0 0.00 0.00 0.00 83 1013.8
20260506113738 3 284 0.0 0.0 0.00 0.00 0.00 83 1014.0
20260506113235 3 285 0.0 0.0 0.00 0.00 0.00 81 1013.8
20260506112731 4 285 0.0 0.0 0.00 0.00 0.00 80 1013.9
20260506112229 4 285 0.0 0.0 0.00 0.00 0.00 79 1013.8
20260506111726 6 284 0.0 0.0 0.00 0.00 0.00 77 1013.8
20260506111224 7 275 0.0 0.0 0.00 0.00 0.00 77 1013.8
20260506110721 8 271 0.0 0.0 0.00 0.00 0.00 74 1013.6
20260506110218 10 257 0.0 0.0 0.00 0.00 0.00 73 1013.5
20260506105715 10 226 0.0 0.0 0.00 0.00 0.00 74 1013.6
20260506105211 9 224 0.0 0.0 0.00 0.00 0.00 77 1013.6
20260506104710 8 225 0.0 0.0 0.00 0.00 0.00 78 1013.6
20260506104207 8 225 0.0 0.0 0.00 0.00 0.00 78 1013.5
20260506103704 8 227 0.0 0.0 0.00 0.00 0.00 79 1013.5
20260506103201 8 231 0.0 0.0 0.00 0.00 0.00 79 1013.7
20260506102659 8 234 0.0 0.0 0.00 0.00 0.00 79 1013.6
20260506102156 9 236 0.0 0.0 0.00 0.00 0.00 78 1013.7
20260506101653 9 231 0.0 0.0 0.00 0.00 0.00 78 1013.7
20260506101150 9 232 0.0 0.0 0.00 0.00 0.00 78 1013.6
20260506100648 9 215 0.0 0.0 0.00 0.00 0.00 77 1013.6
20260506100146 10 230 0.0 0.0 0.00 0.00 0.00 77 1013.6
20260506095644 10 200 0.0 0.0 0.00 0.00 0.00 77 1013.7
20260506095140 10 214 0.0 0.0 0.00 0.00 0.00 77 1013.7
20260506094638 10 206 0.0 0.0 0.00 0.00 0.00 76 1013.6
20260506094136 10 223 0.0 0.0 0.00 0.00 0.00 76 1013.7
20260506093634 10 204 0.0 0.0 0.00 0.00 0.00 76 1013.6
20260506093131 10 214 0.0 0.0 0.00 0.00 0.00 76 1013.6
20260506092629 10 213 0.0 0.0 0.00 0.00 0.00 76 1013.7
20260506092126 10 213 0.0 0.0 0.00 0.00 0.00 76 1013.6
20260506091624 10 218 0.0 0.0 0.00 0.00 0.00 76 1013.7
20260506091121 10 206 0.0 0.0 0.00 0.00 0.00 76 1013.7
20260506090619 10 210 0.0 0.0 0.00 0.00 0.00 76 1013.9
20260506090115 10 204 0.0 0.0 0.00 0.00 0.00 77 1013.7
20260506085612 10 237 0.0 0.0 0.00 0.00 0.00 76 1013.5
20260506085108 10 215 0.0 0.0 0.00 0.00 0.00 75 1013.7
20260506084605 10 228 0.0 0.0 0.00 0.00 0.00 75 1013.7
20260506084101 10 230 0.0 0.0 0.00 0.00 0.00 75 1013.9
20260506083559 10 218 0.0 0.0 0.00 0.00 0.00 74 1013.8
20260506083056 10 221 0.0 0.0 0.00 0.00 0.00 74 1013.7
20260506082552 10 225 0.0 0.0 0.00 0.00 0.00 73 1013.8
20260506082048 10 214 0.0 0.0 0.00 0.00 0.00 73 1013.8
20260506081547 10 214 0.0 0.0 0.00 0.00 0.00 73 1013.8
20260506081043 10 211 0.0 0.0 0.00 0.00 0.00 74 1013.6
20260506080541 10 208 0.0 0.0 0.00 0.00 0.00 74 1013.8
20260506073525 9 211 0.0 0.0 0.00 0.00 0.00 74 1013.8
20260506073022 9 214 0.0 0.0 0.00 0.00 0.00 74 1013.8
20260506072519 9 226 0.0 0.0 0.00 0.00 0.00 73 1013.8
20260506072016 10 234 0.0 0.0 0.00 0.00 0.00 73 1013.6
20260506071514 10 228 0.0 0.0 0.00 0.00 0.00 72 1013.7
20260506071011 10 215 0.0 0.0 0.00 0.00 0.00 72 1013.6
20260506070509 10 213 0.0 0.0 0.00 0.00 0.00 71 1013.5
20260506062446 10 210 0.0 0.0 0.00 0.00 0.00 69 1013.2
20260506061942 10 227 0.0 0.0 0.00 0.00 0.00 68 1012.9
20260506061438 10 231 0.0 0.0 0.00 0.00 0.00 68 1013.0
20260506060936 11 217 0.0 0.0 0.00 0.00 0.00 68 1012.9
20260506060434 11 235 0.0 0.0 0.00 0.00 0.00 67 1012.9
20260506051406 11 229 0.0 0.0 0.00 0.00 0.00 68 1012.5
20260506050903 11 233 0.0 0.0 0.00 0.00 0.00 68 1012.5
20260506050401 11 237 0.0 0.0 0.00 0.00 0.00 68 1012.5
20260506044851 11 205 0.0 0.0 0.00 0.00 0.00 68 1012.3
20260506044349 11 237 0.0 0.0 0.00 0.00 0.00 68 1012.2
20260506043846 11 244 0.0 0.0 0.00 0.00 0.00 67 1012.0
20260506043343 11 231 0.0 0.0 0.00 0.00 0.00 67 1012.3
20260506042841 11 227 0.0 0.0 0.00 0.00 0.00 67 1012.2
20260506042340 11 237 0.0 0.0 0.00 0.00 0.00 67 1012.3
20260506041839 11 249 0.0 0.0 0.00 0.00 0.00 67 1012.0
20260506041335 11 230 0.0 0.0 0.00 0.00 0.00 67 1012.1
20260506040832 11 230 0.0 0.0 0.00 0.00 0.00 67 1012.0
20260506040330 11 235 0.0 0.0 0.00 0.00 0.00 67 1012.0
20260506035825 11 245 0.0 0.0 0.00 0.00 0.00 67 1012.0
20260506035323 11 244 0.0 0.0 0.00 0.00 0.00 67 1011.8
20260506034820 11 247 0.0 0.0 0.00 0.00 0.00 67 1011.7
20260506034317 12 229 0.0 0.0 0.00 0.00 0.00 66 1011.7
20260506033815 12 245 0.0 0.0 0.00 0.00 0.00 66 1011.6
20260506033311 12 232 0.0 0.0 0.00 0.00 0.00 66 1011.7
20260506032808 12 237 11.3 17.7 0.00 0.00 0.00 66 1011.6
20260506032306 12 238 0.0 0.0 0.00 0.00 0.00 66 1011.5
20260506031802 12 254 0.0 0.0 0.00 0.00 0.00 66 1011.3
20260506031259 12 242 0.0 0.0 0.00 0.00 0.00 66 1011.4
20260506030757 12 236 0.0 0.0 0.00 0.00 0.00 66 1011.0
20260506030255 12 220 0.0 0.0 0.00 0.00 0.00 65 1011.3
20260506025751 12 244 14.5 17.7 0.00 0.00 0.00 64 1011.4
20260506025247 12 234 9.7 12.9 0.00 0.00 0.00 64 1011.3
20260506024745 12 247 11.3 16.1 0.00 0.00 0.00 64 1011.0
20260506024241 12 251 11.3 14.5 0.00 0.00 0.00 64 1010.9
20260506023737 12 241 17.7 20.9 0.00 0.00 0.00 63 1011.0
20260506023235 12 232 3.2 17.7 0.00 0.00 0.00 63 1011.0
20260506022731 13 230 17.7 24.1 0.00 0.00 0.00 63 1010.6
20260506022229 13 253 11.3 14.5 0.00 0.00 0.00 62 1010.9
20260506021727 13 252 16.1 17.7 0.00 0.00 0.00 61 1010.5
20260506021224 14 245 17.7 24.1 0.00 0.00 0.00 60 1010.7
20260506020720 14 297 16.1 17.7 0.00 0.00 0.00 55 1010.7
20260506020218 15 239 12.9 17.7 0.00 0.00 0.00 55 1010.4
20260506015716 15 246 14.5 17.7 0.00 0.00 0.00 55 1010.7
20260506015213 15 280 14.5 17.7 0.00 0.00 0.00 56 1010.5
20260506014710 15 258 17.7 24.1 0.00 0.00 0.00 56 1010.3
20260506014206 15 255 17.7 20.9 0.00 0.00 0.00 56 1010.2
20260506013704 15 247 14.5 17.7 0.00 0.00 0.00 57 1010.1
20260506013201 15 223 16.1 24.1 0.00 0.00 0.00 56 1010.3
20260506012657 15 253 19.3 24.1 0.00 0.00 0.00 55 1010.4
20260506012154 15 253 19.3 24.1 0.00 0.00 0.00 54 1010.3
20260506011651 16 272 22.5 32.2 0.00 0.00 0.00 53 1010.4
20260506011147 15 259 16.1 20.9 0.00 0.00 0.00 53 1010.4
20260506010646 16 283 14.5 20.9 0.00 0.00 0.00 52 1010.1
20260506010143 16 259 9.7 14.5 0.00 0.00 0.00 52 1010.1
20260506005640 16 269 16.1 17.7 0.00 0.00 0.00 50 1010.3
20260506005136 16 288 16.1 20.9 0.00 0.00 0.00 50 1010.1
20260506004633 16 272 14.5 22.5 0.00 0.00 0.00 51 1010.0
20260506004130 16 269 22.5 29.0 0.00 0.00 0.00 50 1010.1
20260506003626 16 264 16.1 25.7 0.00 0.00 0.00 49 1010.0
20260506003123 16 262 14.5 16.1 0.00 0.00 0.00 50 1009.9
20260506002619 16 257 14.5 20.9 0.00 0.00 0.00 49 1009.8
20260506002114 16 271 14.5 20.9 0.00 0.00 0.00 50 1009.9
20260506001611 17 269 19.3 25.7 0.00 0.00 0.00 48 1009.8
20260506001108 17 273 14.5 17.7 0.00 0.00 0.00 47 1009.8
20260506000606 17 285 17.7 25.7 0.00 0.00 0.00 49 1009.4
20260505235601 17 277 19.3 24.1 0.00 0.00 0.00 45 1009.3
20260505235058 17 280 17.7 22.5 0.00 0.00 0.00 44 1009.2
20260505234554 18 250 14.5 16.1 0.00 0.00 0.00 43 1009.4
20260505234051 17 237 16.1 20.9 0.00 0.00 0.00 43 1009.3
20260505233549 17 278 16.1 20.9 0.00 0.00 0.00 42 1009.4
20260505233046 17 289 17.7 20.9 0.00 0.00 0.00 45 1009.3
20260505232544 18 278 22.5 27.4 0.00 0.00 0.00 41 1009.1
20260505232041 18 265 12.9 17.7 0.00 0.00 0.00 42 1009.5
20260505231538 18 273 14.5 20.9 0.00 0.00 0.00 41 1009.4
20260505231037 18 237 9.7 12.9 0.00 0.00 0.00 41 1009.4
20260505230533 18 237 11.3 14.5 0.00 0.00 0.00 43 1009.4
20260505230030 18 245 25.7 27.4 0.00 0.00 0.00 43 1009.2
20260505225527 17 237 16.1 22.5 0.00 0.00 0.00 44 1009.5
20260505225022 18 273 16.1 20.9 0.00 0.00 0.00 44 1009.3
20260505224519 17 264 14.5 17.7 0.00 0.00 0.00 46 1009.8
20260505224017 18 277 19.3 25.7 0.00 0.00 0.00 42 1009.6
20260505223514 18 291 14.5 16.1 0.00 0.00 0.00 41 1009.6
20260505223010 18 250 12.9 16.1 0.00 0.00 0.00 42 1009.8
20260505222501 18 278 11.3 16.1 0.00 0.00 0.00 42 1009.6
20260505221956 18 273 12.9 14.5 0.00 0.00 0.00 41 1009.8
20260505221454 18 260 17.7 22.5 0.00 0.00 0.00 40 1009.6
20260505220951 18 250 14.5 16.1 0.00 0.00 0.00 40 1009.8
20260505220448 18 212 11.3 16.1 0.00 0.00 0.00 39 1009.8
20260505215946 18 257 16.1 20.9 0.00 0.00 0.00 40 1009.6
20260505215444 18 251 17.7 20.9 0.00 0.00 0.00 39 1009.9
20260505214941 19 287 16.1 20.9 0.00 0.00 0.00 40 1009.9
20260505214439 18 240 11.3 16.1 0.00 0.00 0.00 42 1009.8
20260505213936 19 242 11.3 16.1 0.00 0.00 0.00 40 1009.6
20260505213434 18 248 19.3 25.7 0.00 0.00 0.00 39 1009.9
20260505212930 18 266 12.9 16.1 0.00 0.00 0.00 40 1009.9
20260505212427 19 213 12.9 16.1 0.00 0.00 0.00 43 1010.0
20260505211923 19 261 22.5 29.0 0.00 0.00 0.00 41 1009.9
20260505211421 18 275 11.3 14.5 0.00 0.00 0.00 43 1010.0
20260505210917 18 251 20.9 27.4 0.00 0.00 0.00 45 1009.9
20260505210423 18 226 16.1 17.7 0.00 0.00 0.00 45 1009.9
20260505205911 18 241 17.7 25.7 0.00 0.00 0.00 45 1009.9
20260505205410 17 243 20.9 25.7 0.00 0.00 0.00 45 1009.8
20260505204906 17 236 9.7 14.5 0.00 0.00 0.00 47 1010.0
20260505204404 17 239 27.4 32.2 0.00 0.00 0.00 47 1009.9
20260505203901 17 227 11.3 14.5 0.00 0.00 0.00 49 1009.9
20260505203357 17 244 17.7 24.1 0.00 0.00 0.00 47 1010.2
20260505202853 16 231 11.3 14.5 0.00 0.00 0.00 50 1010.1
20260505202350 16 241 17.7 20.9 0.00 0.00 0.00 50 1010.5
20260505201846 16 256 9.7 11.3 0.00 0.00 0.00 51 1010.1